Location: *
(47.6569°N, 7.4256°E)
Time: 00:31:33
(UTC+00:00)

N. Korean satellite - Visible Passes

Search period start: 25 February 2020 00:00
Search period end: 06 March 2020 00:00
Orbit: 456 x 505 km, 97.2° (Epoch: 24 February)

Date Brightness Start Highest point End Pass type
(mag) Time Alt. Az. Time Alt. Az. Time Alt. Az.
25 Feb 8.0 04:59:37 10° NNE 05:03:12 43° E 05:06:43 10° S visible
26 Feb 9.3 04:34:31 10° NE 04:37:30 22° E 04:40:27 10° SSE visible
27 Feb 10.1 04:10:14 10° ENE 04:11:44 12° E 04:13:13 10° ESE visible
27 Feb 6.7 05:41:49 10° N 05:45:29 58° WNW 05:49:06 10° SSW visible
28 Feb 7.0 05:16:13 10° NNE 05:19:57 70° ESE 05:23:36 10° S visible
29 Feb 8.5 04:50:55 10° NNE 04:54:19 34° E 04:57:41 10° SSE visible
01 Mar 9.7 04:25:58 10° NE 04:28:35 18° E 04:31:11 10° SE visible
02 Mar 6.6 05:32:56 10° N 05:36:38 73° WNW 05:40:17 10° SSW visible
02 Mar 10.8 17:47:50 10° W 17:48:31 10° W 17:49:13 10° WNW visible
03 Mar 7.5 05:07:26 10° NNE 05:11:05 54° E 05:14:39 10° S visible
04 Mar 9.0 04:42:12 10° NE 04:45:25 27° E 04:48:33 10° SSE visible
05 Mar 9.9 04:17:32 10° NE 04:19:38 15° E 04:21:43 10° SE visible
